Time_in_sec,Mx,My,Mz
1314275008.90747929,-0.33487242,0.49459159,-0.80471969
1314275008.95650220,-0.33386457,0.49560177,-0.80586600
1314275009.00810552,-0.33226514,0.49458170,-0.80643171
1314275009.05648422,-0.33331221,0.49342865,-0.80369139
1314275009.10446525,-0.33316991,0.49470958,-0.80568677
1314275009.15628934,-0.33251700,0.49609211,-0.80592561
1314275009.20445561,-0.33353522,0.49329650,-0.80290556
1314275009.25649333,-0.33323410,0.49369001,-0.80461937
1314275009.29549003,-0.33366188,0.49420223,-0.80491352
1314275009.35646248,-0.33456177,0.49269214,-0.80428904
1314275009.40853190,-0.33464983,0.49268454,-0.80349642
1314275009.45646572,-0.33258119,0.49507254,-0.80485821
1314275009.50444818,-0.33395681,0.49307641,-0.80545372
1314275009.55616331,-0.33409473,0.49333021,-0.80546349
1314275009.60447907,-0.33390382,0.49445149,-0.80439746
1314275009.65615892,-0.33326396,0.49445128,-0.80502552
1314275009.70758462,-0.33414501,0.49155238,-0.80425674
1314275009.75667381,-0.33356181,0.49471122,-0.80544329
1314275009.79660606,-0.33327293,0.49457893,-0.80515993
1314275009.85647655,-0.33378589,0.49369779,-0.80478388
1314275009.90408540,-0.33232561,0.49404067,-0.80297488
1314275009.95659041,-0.33284709,0.49532637,-0.80474240
1314275010.00456238,-0.33227637,0.49493718,-0.80430806
1314275010.05591869,-0.33327803,0.49319470,-0.80541581
1314275010.10446310,-0.33428222,0.49165568,-0.80200553
1314275010.15649295,-0.33345282,0.49408519,-0.80596411
1314275010.20444822,-0.33410221,0.49015898,-0.80371225
1314275010.25954556,-0.33257630,0.49343455,-0.80497873
1314275010.29648089,-0.33208659,0.49416974,-0.80349392
1314275010.35573983,-0.33161569,0.49329594,-0.80478984
1314275010.41139889,-0.33388990,0.49369326,-0.80425811
1314275010.45647097,-0.33227834,0.49518943,-0.80431008
1314275010.50848842,-0.33422193,0.49418715,-0.80295140
1314275010.55651188,-0.33159867,0.49417418,-0.80439663
1314275010.60860825,-0.33231959,0.49429137,-0.80284351
1314275010.65563703,-0.33307716,0.49406222,-0.80421442
1314275010.70852709,-0.33113530,0.49312702,-0.80130494
1314275010.75574231,-0.33179775,0.49403745,-0.80321062
1314275010.79645443,-0.33375219,0.49442247,-0.80186284
1314275010.85566235,-0.33374599,0.49369016,-0.80411690
1314275010.90850401,-0.33396131,0.49353209,-0.80093765
1314275010.95651364,-0.33187246,0.49543697,-0.80428874
1314275011.00457025,-0.33249453,0.49316704,-0.80364275
1314275011.05646682,-0.33253062,0.49466065,-0.80179483
1314275011.10477757,-0.33214778,0.49377924,-0.80229813
1314275011.15651917,-0.33325523,0.49530667,-0.80250567
1314275011.20456028,-0.33387432,0.49265841,-0.80185670
1314275011.25557494,-0.33370042,0.49290144,-0.80118394
1314275011.29657149,-0.33343050,0.49315053,-0.80117035
1314275011.35657215,-0.33260971,0.49452540,-0.80086780
1314275011.40858603,-0.33289391,0.49400273,-0.79888618
1314275011.45647883,-0.33296770,0.49426869,-0.80008876
1314275011.50439501,-0.33388510,0.49505311,-0.80174220
1314275011.55551338,-0.33251798,0.49400413,-0.79939646
1314275011.60450101,-0.33204994,0.49451607,-0.80056989
1314275011.65636063,-0.33338156,0.49402267,-0.80024350
1314275011.70848060,-0.33466041,0.49188212,-0.79923719
1314275011.75647664,-0.33121717,0.49639237,-0.80000454
1314275011.80751443,-0.33452347,0.49175444,-0.79922843
1314275011.85647511,-0.33310562,0.49452248,-0.80009854
1314275011.90449452,-0.33108097,0.49319369,-0.79585212
1314275011.95545959,-0.33238393,0.49526221,-0.79926521
1314275012.00449753,-0.33153340,0.49386096,-0.79880738
1314275012.05545807,-0.33127081,0.49295369,-0.79679167
1314275012.10423732,-0.33341375,0.49400440,-0.79851711
1314275012.16295767,-0.33413944,0.49376914,-0.79935437
1314275012.20904303,-0.33397070,0.49162054,-0.79906291
1314275012.25647783,-0.33185446,0.49397498,-0.79736435
1314275012.29947472,-0.33324364,0.49376887,-0.80023372
1314275012.35660815,-0.33465526,0.49427375,-0.79885590
1314275012.40465450,-0.33281416,0.49298006,-0.79767764
1314275012.45619440,-0.33247700,0.49487779,-0.79860300
1314275012.50859094,-0.33286163,0.49502841,-0.80048716
1314275012.55648804,-0.33110818,0.49576631,-0.80052537
1314275012.60747886,-0.33285314,0.49185416,-0.79846913
1314275012.65647912,-0.33496311,0.49378005,-0.79953444
1314275012.70850587,-0.33346200,0.49298176,-0.79718292
1314275012.75657940,-0.33336666,0.49313834,-0.80010319
1314275012.79646063,-0.33282477,0.49439171,-0.79994857
1314275012.85604215,-0.33386689,0.49260810,-0.79720330
1314275012.90848017,-0.33291212,0.49423364,-0.79689497
1314275012.95645666,-0.33323854,0.49515313,-0.79997790
1314275013.00858831,-0.33342767,0.49476263,-0.79865646
1314275013.05646896,-0.33317879,0.49363056,-0.79916555
1314275013.10444403,-0.33313084,0.49462882,-0.79823971
1314275013.15555739,-0.33275801,0.49299374,-0.79900384
1314275013.20514870,-0.33349094,0.49260953,-0.79771358
1314275013.25557041,-0.33305576,0.49426112,-0.79929614
1314275013.29663801,-0.33351588,0.49274021,-0.79811472
1314275013.35646057,-0.33217919,0.49461785,-0.79818529
1314275013.40746784,-0.33397782,0.49348637,-0.79668444
1314275013.45647836,-0.33164698,0.49614939,-0.80042607
1314275013.50849891,-0.33304778,0.49425957,-0.79916275
1314275013.55660319,-0.33313191,0.49374750,-0.79836613
1314275013.60475254,-0.33354583,0.49249408,-0.79864633
1314275013.65559530,-0.33258703,0.49462256,-0.79820859
1314275013.70755982,-0.33466429,0.49339399,-0.79911572
1314275013.75645399,-0.33325365,0.49301523,-0.80049461
1314275013.79649425,-0.33335784,0.49500114,-0.79745787
1314275013.85552025,-0.33457631,0.49239418,-0.80003381
1314275013.90858030,-0.33329773,0.49451035,-0.79878008
1314275013.95556927,-0.33410418,0.49441648,-0.80095237
1314275014.00457215,-0.33306685,0.49262616,-0.79968345
1314275014.05556726,-0.33067751,0.49386835,-0.80035377
1314275014.10858488,-0.33407170,0.49224505,-0.79840869
1314275014.15663767,-0.33254629,0.49468806,-0.80432165
1314275014.20857358,-0.33489347,0.49099633,-0.79871219
1314275014.25648236,-0.33337626,0.49442390,-0.80237311
1314275014.30442929,-0.33294058,0.49290273,-0.80207103
1314275014.35548162,-0.33311969,0.49326590,-0.80048877
1314275014.40441871,-0.33474419,0.49240184,-0.80057520
1314275014.45949936,-0.33231458,0.49466819,-0.80271310
1314275014.50849771,-0.33239678,0.49289650,-0.80203992
1314275014.54552150,-0.33373827,0.49366423,-0.80172348
1314275014.60445118,-0.33000383,0.49260241,-0.80057174
1314275014.65647697,-0.33226684,0.49664947,-0.79940176
1314275014.70441365,-0.33420038,0.49239558,-0.80054408
1314275014.75623608,-0.33288825,0.49543574,-0.80315036
1314275014.80499029,-0.33303529,0.49380234,-0.80354542
1314275014.85622096,-0.33240244,0.49367759,-0.80430591
1314275014.90449858,-0.33406314,0.49229228,-0.80279529
1314275014.95645380,-0.33074555,0.49758214,-0.80556959
1314275015.00459361,-0.33341926,0.49279505,-0.80329400
1314275015.04751706,-0.33267623,0.49494034,-0.80419803
1314275015.10432339,-0.33382982,0.49320248,-0.80558032
1314275015.15956092,-0.33336258,0.49686277,-0.80637842
1314275015.20441771,-0.33390000,0.49193218,-0.80464435
1314275015.25610995,-0.33376357,0.49497724,-0.80652022
1314275015.30449820,-0.33398470,0.49358544,-0.80585790
1314275015.35653472,-0.33092958,0.49457061,-0.80675411
1314275015.40444899,-0.33329004,0.49269328,-0.80567867
1314275015.45645523,-0.33474806,0.49612781,-0.80698383
1314275015.50398779,-0.33289778,0.49372345,-0.80805665
1314275015.54759455,-0.33161032,0.49470457,-0.80679399
1314275015.60445857,-0.33269921,0.49703291,-0.81112736
1314275015.65659475,-0.33299971,0.49548149,-0.80727798
1314275015.70451713,-0.33349782,0.49270859,-0.80688703
1314275015.75645781,-0.33282244,0.49738538,-0.80861127
1314275015.80448890,-0.33515379,0.49388984,-0.80951613
1314275015.85647321,-0.33158800,0.49598402,-0.80853039
1314275015.90444803,-0.33356801,0.49143830,-0.80595106
1314275015.95660210,-0.33327430,0.49588734,-0.80955648
1314275016.00448465,-0.33293170,0.49398178,-0.80859226
1314275016.04859591,-0.33181119,0.49383706,-0.80799544
1314275016.10392380,-0.33338630,0.49588433,-0.80916411
1314275016.15657234,-0.33340418,0.49714702,-0.80930740
1314275016.20860744,-0.33386880,0.49207658,-0.80637181
1314275016.25652933,-0.33396146,0.49373138,-0.80771869
1314275016.30779219,-0.33090323,0.49635303,-0.80836105
1314275016.35659313,-0.33299440,0.49588269,-0.80940753
1314275016.40926433,-0.33398548,0.49272853,-0.80824435
1314275016.45661044,-0.33123884,0.49437791,-0.81195474
1314275016.50848675,-0.33362213,0.49439386,-0.81102753
1314275016.55483985,-0.33145869,0.49688965,-0.81078959
1314275016.60862398,-0.33283940,0.49350929,-0.81164092
1314275016.65647173,-0.33381909,0.49601972,-0.80958861
1314275016.70746255,-0.33434227,0.49536794,-0.80708796
1314275016.75555944,-0.33392015,0.49563682,-0.80905980
1314275016.79649210,-0.33241445,0.49539027,-0.81109887
1314275016.85557556,-0.33391032,0.49336824,-0.80917531
1314275016.90858769,-0.33377227,0.49512926,-0.80891466
1314275016.95775604,-0.33267230,0.49664998,-0.81072420
1314275017.00454855,-0.33397821,0.49287751,-0.81037194
1314275017.04847980,-0.33333918,0.49501827,-0.81075013
1314275017.10754800,-0.33218041,0.49614993,-0.81162286
1314275017.15554333,-0.33262837,0.49714530,-0.80992776
1314275017.20444584,-0.33444509,0.49425426,-0.80894661
1314275017.25640512,-0.33262250,0.49538118,-0.81004727
1314275017.30847716,-0.33365992,0.49616408,-0.81144166
1314275017.35441947,-0.33255026,0.49740663,-0.81085575
1314275017.40451264,-0.33430427,0.49261472,-0.80905932
1314275017.45647097,-0.33269334,0.49526879,-0.81124687
1314275017.50447416,-0.33260867,0.49361554,-0.81003332
1314275017.54747605,-0.33326736,0.49500453,-0.80954957
1314275017.60441422,-0.33196464,0.49613312,-0.81028110
1314275017.65956020,-0.33324146,0.49474773,-0.80914736
1314275017.70850062,-0.33292669,0.49435860,-0.80846184
1314275017.75645375,-0.33253139,0.49601781,-0.81071144
1314275017.80746651,-0.33389401,0.49439698,-0.81104308
1314275017.85646653,-0.33164167,0.49475944,-0.81184763
1314275017.90827036,-0.33276254,0.49387237,-0.81030989
1314275017.95552063,-0.33261135,0.49401826,-0.81229633
1314275018.00442433,-0.33365107,0.49402162,-0.81155813
1314275018.04848242,-0.33291933,0.49551499,-0.81046396
1314275018.10417366,-0.33063367,0.49778444,-0.81274307
1314275018.15560508,-0.33176726,0.49654645,-0.81372917
1314275018.20811486,-0.33272675,0.49235439,-0.80989778
1314275018.25647283,-0.33336979,0.49593005,-0.81341732
1314275018.30444288,-0.33362883,0.49429366,-0.81341994
1314275018.35632229,-0.33325976,0.49618530,-0.81381172
1314275018.40444899,-0.33341122,0.49200976,-0.81232709
1314275018.45632744,-0.33318970,0.49544078,-0.81499857
1314275018.50745034,-0.33347499,0.49302939,-0.81326884
1314275018.54844451,-0.33333695,0.49479041,-0.81300819
1314275018.60448241,-0.33240288,0.49606654,-0.81535709
1314275018.65649009,-0.33215725,0.49528843,-0.81360912
1314275018.70847654,-0.33483452,0.49304503,-0.81334662
1314275018.75658560,-0.33296102,0.49479184,-0.81351846
1314275018.80443978,-0.33125940,0.49604335,-0.81436104
1314275018.85597062,-0.33231616,0.49516848,-0.81401610
1314275018.90745521,-0.33332184,0.49292305,-0.81525332
1314275018.95644951,-0.33158675,0.49809638,-0.81731951
1314275019.00437689,-0.33301109,0.49203098,-0.81469721
1314275019.04756999,-0.33342084,0.49329534,-0.81459707
1314275019.10442615,-0.33205131,0.49403334,-0.81425846
1314275019.15589857,-0.33220419,0.49416408,-0.81453401
1314275019.20845866,-0.33596358,0.49535662,-0.81608695
1314275019.25558209,-0.33215493,0.49606800,-0.81574172
1314275019.30770683,-0.33314252,0.49558210,-0.81645918
1314275019.35647464,-0.33179784,0.49745825,-0.81639630
1314275019.40765381,-0.33210230,0.49240604,-0.81531268
1314275019.45647240,-0.33162114,0.49530810,-0.81597143
1314275019.50848842,-0.33280876,0.49581900,-0.81537843
1314275019.54750466,-0.33247477,0.49507287,-0.81668311
1314275019.60842705,-0.33232746,0.49673066,-0.81854808
1314275019.65573335,-0.33232680,0.49557275,-0.81641251
1314275019.70745802,-0.33467725,0.49444905,-0.81507617
1314275019.75649333,-0.32992548,0.49731633,-0.81682003
1314275019.80754638,-0.33302662,0.49407324,-0.81697309
1314275019.85648680,-0.33223882,0.49457291,-0.81733060
1314275019.90744424,-0.33355573,0.49417818,-0.81447840
1314275019.95561004,-0.33214793,0.49619260,-0.81560934
1314275020.01104712,-0.33300269,0.49406868,-0.81657290
1314275020.04755616,-0.33226198,0.49543440,-0.81534433
1314275020.11047268,-0.33199587,0.49419755,-0.81784564
1314275020.15648794,-0.33353433,0.49659118,-0.81609029
1314275020.20450163,-0.33237413,0.49341658,-0.81520283
1314275020.25647783,-0.33200011,0.49467763,-0.81558961
1314275020.30848885,-0.33179298,0.49582022,-0.81651682
1314275020.35930991,-0.33221784,0.49494669,-0.81693339
1314275020.40443730,-0.33163851,0.49339807,-0.81423014
1314275020.45544291,-0.33239490,0.49606502,-0.81522369
1314275020.50432158,-0.33377445,0.49457335,-0.81582314
1314275020.54657102,-0.33178583,0.49795964,-0.81613350
1314275020.60433030,-0.33296207,0.49391055,-0.81364489
1314275020.65644884,-0.33296660,0.49658033,-0.81565899
1314275020.70843434,-0.33296701,0.49454114,-0.81364983
1314275020.75648212,-0.33151534,0.49604344,-0.81410980
1314275020.80445170,-0.33150318,0.49455440,-0.81635791
1314275020.85645461,-0.33139810,0.49544024,-0.81675726
1314275020.90845966,-0.33155680,0.49212316,-0.81301957
1314275020.95648050,-0.33226728,0.49503320,-0.81321472
1314275021.00846267,-0.33230895,0.49431002,-0.81626922
1314275021.04844904,-0.33401343,0.49444428,-0.81530410
1314275021.10461617,-0.33338943,0.49646196,-0.81594813
1314275021.15546107,-0.33198696,0.49706775,-0.81507492
1314275021.20469475,-0.33352184,0.49391985,-0.81394279
1314275021.25545835,-0.33335960,0.49469328,-0.81566739
1314275021.30761194,-0.33263868,0.49457610,-0.81722051
1314275021.35646892,-0.33237365,0.49646318,-0.81708646
1314275021.40847540,-0.33399037,0.49257538,-0.81741583
1314275021.45651913,-0.33289549,0.49671710,-0.81671935
1314275021.50747895,-0.33190009,0.49417922,-0.81624484
1314275021.54418612,-0.33215973,0.49470815,-0.81825763
1314275021.60443902,-0.33199269,0.49684143,-0.81746632
1314275021.65654755,-0.33203459,0.49710131,-0.81813532
1314275021.70850801,-0.33140123,0.49380377,-0.81701118
1314275021.75670838,-0.33159083,0.49658602,-0.81757438
1314275021.80757046,-0.33316830,0.49384850,-0.81937230
1314275021.85722685,-0.33142969,0.49647814,-0.81942546
1314275021.90789843,-0.33291757,0.49445462,-0.81736851
1314275021.95659184,-0.33210549,0.49598151,-0.81946033
1314275022.00445175,-0.33264673,0.49357021,-0.81747937
1314275022.04843521,-0.33226678,0.49407455,-0.81786025
1314275022.10390425,-0.33196354,0.49623063,-0.81932116
1314275022.15649319,-0.33168444,0.49937433,-0.81879687
1314275022.20849442,-0.33218387,0.49569577,-0.81627232
1314275022.25647497,-0.33303022,0.49560952,-0.81911165
1314275022.30774283,-0.33217567,0.49471122,-0.81852442
1314275022.35584927,-0.33202165,0.49646917,-0.81799692
1314275022.40884256,-0.33255196,0.49367800,-0.81587958
1314275022.45585871,-0.33191374,0.49496183,-0.81864423
1314275022.50758910,-0.33243063,0.49458516,-0.81827217
1314275022.54846597,-0.33312917,0.49698922,-0.81832993
1314275022.60771418,-0.33231452,0.49609855,-0.81840974
1314275022.65645409,-0.33087486,0.49709943,-0.81913251
1314275022.70758152,-0.33289555,0.49570969,-0.81684482
1314275022.75564861,-0.33358103,0.49549118,-0.81927514
1314275022.80845189,-0.33160517,0.49530506,-0.81570464
1314275022.85557055,-0.33339930,0.49371788,-0.81871986
1314275022.90747285,-0.33266065,0.49432844,-0.81761873
1314275022.95659661,-0.33277810,0.49812874,-0.81911594
1314275023.00451350,-0.33437517,0.49370903,-0.81691450
1314275023.04445815,-0.33187574,0.49621385,-0.81785375
1314275023.10449600,-0.33206853,0.49635223,-0.81879634
1314275023.15557504,-0.33202165,0.49646917,-0.81799692
1314275023.20447111,-0.33452469,0.49550059,-0.81919616
1314275023.25557089,-0.33316913,0.49598944,-0.81912237
1314275023.30745769,-0.33201578,0.49470505,-0.81811643
1314275023.35659528,-0.33215865,0.49558944,-0.81813115
1314275023.40752125,-0.33528268,0.49323225,-0.81855798
1314275023.45647573,-0.33369401,0.49561429,-0.81888372
1314275023.50832224,-0.33276138,0.49497733,-0.81922448
1314275023.55648136,-0.33069816,0.49494928,-0.81870764
1314275023.60442328,-0.33308855,0.49282581,-0.81816375
1314275023.65547991,-0.33342507,0.49598950,-0.81887114
1314275023.70751786,-0.33275867,0.49457461,-0.81696153
1314275023.75645208,-0.33159155,0.49673653,-0.81983542
1314275023.80849648,-0.33323738,0.49446690,-0.81818444
1314275023.85648131,-0.33279160,0.49470681,-0.81749612
1314275023.90442109,-0.33310974,0.49343508,-0.81617552
1314275023.95545435,-0.33194292,0.49557263,-0.81678939
1314275024.00442147,-0.33241233,0.49536169,-0.82013798
1314275024.05948210,-0.33049929,0.49606904,-0.81750822
1314275024.10441899,-0.33266968,0.49344864,-0.81787860
1314275024.15648961,-0.33272034,0.49685842,-0.81830561
1314275024.20750093,-0.33250788,0.49218288,-0.81759405
1314275024.26046658,-0.33211374,0.49595866,-0.81733376
1314275024.29657984,-0.33185992,0.49419597,-0.81783789
1314275024.35556984,-0.33220062,0.49484190,-0.81892562
1314275024.40444875,-0.33300367,0.49419478,-0.81657386
1314275024.45657563,-0.33253875,0.49707553,-0.81523943
1314275024.50445771,-0.33251765,0.49545887,-0.81735313
1314275024.55645204,-0.33022705,0.49709770,-0.81962723
1314275024.60448718,-0.33312273,0.49305978,-0.81643933
1314275024.65646911,-0.33285832,0.49610478,-0.81844085
1314275024.70745373,-0.33176416,0.49417767,-0.81623709
1314275024.75657749,-0.33179995,0.49569565,-0.81664920
1314275024.79643774,-0.33301017,0.49711680,-0.81858993
1314275024.85588861,-0.33253792,0.49493459,-0.81548929
1314275024.90453553,-0.33315077,0.49555925,-0.81433260
1314275024.95647621,-0.33207589,0.49519584,-0.81679416
1314275025.00450206,-0.33108425,0.49618468,-0.81594729
1314275025.05647635,-0.33266053,0.49634326,-0.81736785
1314275025.10848236,-0.33364648,0.49457332,-0.81594878
1314275025.15601635,-0.33136505,0.49732286,-0.81597179
1314275025.20846033,-0.33485013,0.49407989,-0.81574798
1314275025.25659442,-0.33438703,0.49522242,-0.81692642
1314275025.29648280,-0.33399913,0.49572524,-0.81717384
1314275025.35646749,-0.33292973,0.49594364,-0.81512040
1314275025.40846348,-0.33476624,0.49557498,-0.81415910
1314275025.45645285,-0.33260563,0.49645868,-0.81643504
1314275025.50848317,-0.33156627,0.49542353,-0.81503862
1314275025.55947971,-0.33186415,0.49467605,-0.81558186
1314275025.60842824,-0.33414876,0.49328792,-0.81317633
1314275025.65564609,-0.33169529,0.49454227,-0.81503946
1314275025.70745301,-0.33379373,0.49392298,-0.81395835
1314275025.75646138,-0.33212700,0.49555895,-0.81533754
1314275025.79563355,-0.33278981,0.49543762,-0.81510866
1314275025.85645223,-0.33327889,0.49354446,-0.81445783
1314275025.90445232,-0.33389366,0.49542880,-0.81317765
1314275025.95543313,-0.33174700,0.49707073,-0.81559294
1314275026.01227307,-0.33242023,0.49415651,-0.81361574
1314275026.05557370,-0.33370551,0.49594539,-0.81450009
1314275026.10758328,-0.33295253,0.49161756,-0.81150037
1314275026.15645909,-0.33190590,0.49695075,-0.81599993
1314275026.20756459,-0.33373392,0.49340782,-0.81302059
1314275026.25647402,-0.33528510,0.49545053,-0.81378901
1314275026.29652500,-0.33143893,0.49436730,-0.81076968
1314275026.35638666,-0.33335093,0.49454123,-0.81327301
1314275026.40448213,-0.33359027,0.49338034,-0.81061941
1314275026.45640087,-0.33192158,0.49476409,-0.81199658
1314275026.50460935,-0.33317012,0.49390146,-0.81259322
1314275026.55754924,-0.33233535,0.49552548,-0.81202590
1314275026.60441637,-0.33475980,0.49164554,-0.81226850
1314275026.65547061,-0.33338010,0.49515203,-0.81141812
1314275026.70432353,-0.33431613,0.49412811,-0.80907124
1314275026.75544000,-0.33254349,0.49450898,-0.81109971
1314275026.79643869,-0.33159387,0.49374288,-0.81117272
1314275026.85623574,-0.33277342,0.49525967,-0.81032079
